Regional Weather Roundup
Issued by NWS

Home | Current Version | Previous Version | Text Only | Print | Product List | Glossary On
Versions: 1 2 3 4 5 6 7 8 9 10 11 12 13 14 15 16 17 18 19 20 21 22 23 24 25 26 27 28 29 30 31 32 33 34 35 36 37 38 39 40 41 42 43 44 45 46 47 48 49 50
000
ASUS44 KOUN 231510
RWROK

WEATHER ROUNDUP FOR OKLAHOMA
NATIONAL WEATHER SERVICE NORMAN OK
1000 AM CDT TUE MAY 23 2017

NOTE: "FAIR" INDICATES FEW OR NO CLOUDS BELOW 12,000 FEET WITH NO
      SIGNIFICANT WEATHER AND/OR OBSTRUCTIONS TO VISIBILITY.

OKZ001>007-009>012-014-015-017-231600-
NORTHWEST OKLAHOMA AND THE PANHANDLE

CITY           SKY/WX    TMP DP  RH WIND       PRES   REMARKS
GAGE           MOSUNNY   57  47  69 N16       30.06S
GUYMON         CLOUDY    52  44  74 N18       30.13F
ENID/WOODRING  CLOUDY    55  52  88 NW13G21   29.97S
$$

OKZ016-021>023-033>039-044-045-231600-
SOUTHWEST OKLAHOMA

CITY           SKY/WX    TMP DP  RH WIND       PRES   REMARKS
LAWTON/REGL    CLOUDY    61  54  77 N14       29.97R
LAWTON/FT SILL CLOUDY    60  54  82 N20G26    29.95S
FREDERICK      CLOUDY    62  51  67 N17       29.97S
CLINTON        CLOUDY    55  49  80 N23       30.02R
HOBART         CLOUDY    58  52  80 N16       30.01R
$$

OKZ018>020-024>031-231600-
CENTRAL OKLAHOMA

CITY           SKY/WX    TMP DP  RH WIND       PRES   REMARKS
OKLAHOMA CITY  CLOUDY    58  53  84 N22       29.96R
OKC/WILEY POST CLOUDY    59  54  83 N20G29    29.96R
OKC/TINKER AFB CLOUDY    59  53  80 N20       29.95R
STILLWATER     CLOUDY    61  53  75 N12G22    29.96R
GUTHRIE        CLOUDY    59  54  83 N8        29.97R
$$

OKZ008-013-054>072-231600-
NORTHEAST OKLAHOMA

CITY           SKY/WX    TMP DP  RH WIND       PRES   REMARKS
TULSA          CLOUDY    64  56  75 N14       29.89R
TULSA/JONES    CLOUDY    64  56  75 VRB5      29.91R
PONCA CITY     CLOUDY    58  51  78 N15       29.95S
BARTLESVILLE   CLOUDY    61  53  75 VRB3      29.93R
MUSKOGEE       PTSUNNY   66  58  75 NW12      29.89S
$$

OKZ032-040>043-046>053-073>077-231600-
SOUTH CENTRAL/SOUTHEAST OKLAHOMA

CITY           SKY/WX    TMP DP  RH WIND       PRES   REMARKS
ARDMORE/DWNTWN PTSUNNY   64  55  72 N3        29.92F
MCALESTER      PTSUNNY   69  60  73 NW10      29.89S
$$





USA.gov is the U.S. government's official web portal to all federal, state and local government web resources and services.